[[{"header":{"parameterUnit":"m.s-1","parameterCategory":1,"la1":30.2991,"la2":30.254,"lo1":-89.0895,"lo2":-89.0444,"dy":0.0017,"dx":0.0017,"nx":28,"ny":28,"refTime":"2024-12-14T03:00:00:Z","depth":0,"parameterNumber":2,"parameterNumberName":"U-component_of_WINDS"},"data":[0,0,0,0,0,0,0,0,0,0,0,0,0,0,0,0,0,0,0,0,0,0,0,0,0,0,0,0,0,0,0,0,0,0,0,0,0,0,0,0,0,0,0,0,0,0,0,0,0,0,0,0,0,0,0,0,0,0,-6.6082,-6.6081,0,-6.6024,-6.6023,-6.6022,-6.583,-6.5826,-6.5822,-6.5817,-6.5761,-6.5763,-6.5766,0,0,0,0,0,0,0,0,0,0,0,0,0,-6.6031,-6.6033,-6.6082,-6.6081,-6.608,-6.6024,-6.6023,-6.6022,-6.5831,-6.5826,-6.582,-6.5816,-6.576,-6.5763,-6.5766,0,0,0,0,0,0,0,0,0,0,0,0,0,-6.6021,-6.6033,-6.6082,-6.5978,-6.5968,-6.6024,-6.6023,-6.6022,-6.5832,-6.5826,-6.5819,-6.5813,-6.5759,-6.5763,-6.5766,-6.5919,0,0,-6.5778,-6.578,0,0,0,0,0,0,0,0,-6.6022,-6.6023,-6.5994,-6.5985,-6.5974,-6.5927,-6.5984,-6.5988,-6.5834,-6.5884,-6.5817,-6.581,-6.5822,-6.582,-6.5823,-6.5916,-6.5914,-6.5778,-6.5781,-6.5782,-6.5783,0,0,0,0,0,0,0,-6.6023,-6.6024,-6.6059,-6.5994,-6.5982,-6.5936,-6.5927,-6.5984,-6.589,-6.5879,-6.5865,-6.586,-6.5815,-6.582,-6.5821,-6.5913,-6.5778,-6.5781,-6.5784,-6.5785,-6.613,-6.6136,0,0,0,0,0,0,-6.6038,-6.6026,-6.6061,-6.6057,-6.5982,-6.5942,-6.5932,-6.5949,-6.5889,-6.5873,-6.5866,-6.5852,-6.5817,-6.5816,-6.5818,-6.5991,-6.5782,-6.5786,-6.5788,-6.6123,-6.6131,-6.6139,0,0,0,0,0,0,-6.6037,-6.6043,-6.6063,-6.6038,-6.6037,-6.5949,-6.597,-6.5951,-6.5956,-6.5879,-6.5861,-6.5888,-6.5812,-6.5813,-6.5895,-6.5987,-6.5787,-6.5791,-6.6115,-6.6125,-6.6135,-6.6341,0,0,0,0,0,0,-6.6037,-6.6044,-6.6099,-6.6041,-6.6039,-6.614,-6.5976,-6.5955,-6.5963,-6.5943,-6.5895,-6.5881,-6.5807,-6.5891,-6.5899,-6.5988,-6.5794,-6.6106,-6.6119,-6.6132,-6.6326,-6.6358,-6.6385,0,0,0,0,0,-6.6036,-6.616,-6.6103,-6.6108,-6.6107,-6.6146,-6.6145,-6.6057,-6.5971,-6.6027,-6.5978,-6.5882,-6.5977,-6.5901,-6.5909,-6.6001,-6.61,-6.6116,-6.6131,-6.6313,-6.6351,-6.6384,0,0,0,0,0,0,-6.6232,-6.615,-6.6086,-6.6195,-6.6179,-6.6113,-6.618,-6.61,-6.6108,-6.609,-6.5981,-6.5972,-6.6071,-6.6044,-6.5961,-6.6146,-6.6022,-6.604,-6.6158,-6.6194,-6.6223,-6.6226,-6.5797,0,0,0,0,0,-6.6288,-6.6326,-6.6253,-6.6356,-6.6352,-6.6269,-6.6283,-6.6216,-6.6195,-6.6187,-6.6144,-6.6129,-6.6154,-6.6173,-6.6193,-6.6323,-6.6309,-6.6391,-6.642,-6.6444,-6.646,-6.6527,-6.6561,-6.6189,-6.6189,-6.6189,0,0,-6.6403,-6.6364,-6.6394,-6.6395,-6.6374,-6.6417,-6.6264,-6.6315,-6.6345,-6.6195,-6.6269,-6.6239,-6.6214,-6.6321,-6.6366,-6.6302,-6.6561,-6.6464,-6.6484,-6.6486,-6.6546,-6.6582,-6.6613,-6.62,-6.6198,-6.6196,0,0,-6.6635,-6.661,-6.6692,-6.6676,-6.6647,-6.6592,-6.6613,-6.656,-6.6533,-6.6607,-6.6495,-6.6532,-6.6579,-6.6566,-6.6566,-6.6798,-6.671,-6.6808,-6.696,-6.7026,-6.7055,-6.7081,-6.7162,-6.7193,-6.6825,-6.6825,-6.6826,0,-6.6782,-6.684,-6.6746,-6.6804,-6.6808,-6.6676,-6.6759,-6.6748,-6.6729,-6.6735,-6.6664,-6.6721,-6.6696,-6.6798,-6.6855,-6.686,-6.688,-6.6811,-6.7059,-6.7083,-6.7105,-6.7182,-6.7213,-6.6837,-6.6836,-6.6835,-6.6833,0,-6.7022,-6.7065,-6.7136,-6.7119,-6.7132,-6.7204,-6.7121,-6.7146,-6.7081,-6.7034,-6.7111,-6.7077,-6.7087,-6.7108,-6.7044,-6.7202,-6.7163,-6.7078,-6.6951,-6.7154,-6.7224,-6.7253,-6.6854,-6.685,-6.6846,-6.6843,0,0,-6.7369,-6.7303,-6.733,-6.7322,-6.7283,-6.7314,-6.7382,-6.7392,-6.7415,-6.7408,-6.7461,-6.7506,-6.7427,-6.7428,-6.7362,-6.7422,-6.7607,-6.7328,-6.7326,-6.7379,-6.7777,-6.7839,-6.7874,-6.755,-6.7556,-6.756,-6.7778,0,-6.7587,-6.7695,-6.7614,-6.7737,-6.7775,-6.7653,-6.7711,-6.7695,-6.7655,-6.7683,-6.7638,-6.7671,-6.7566,-6.7565,-6.7619,-6.7573,-6.7684,-6.7556,-6.7598,-6.76,-6.7603,-6.7911,-6.7975,-6.8183,-6.7805,-6.781,-6.7813,0,-6.7853,-6.7857,-6.7984,-6.7939,-6.7952,-6.8006,-6.801,-6.8039,-6.8019,-6.7985,-6.7988,-6.7908,-6.7972,-6.7852,-6.7938,-6.7853,-6.7867,-6.7848,-6.7854,-6.785,-6.7716,-6.7913,-6.8247,-6.8277,-6.7856,-6.7852,-6.7849,0,-6.8091,-6.8129,-6.821,-6.8207,-6.8157,-6.8198,-6.8179,-6.8153,-6.8165,-6.817,-6.8176,-6.819,-6.8196,-6.8209,-6.8136,-6.8055,-6.8232,-6.8105,-6.8205,-6.8207,-6.8244,-6.8242,-6.8581,-6.826,-6.8259,-6.8259,-6.8258,0,-6.8339,-6.8421,-6.8316,-6.8365,-6.8454,-6.8363,-6.8454,-6.8422,-6.8401,-6.8443,-6.8341,-6.8383,-6.8285,-6.8318,-6.8262,-6.8341,-6.8346,-6.8321,-6.8304,-6.8327,-6.833,-6.8331,-6.8313,-6.8267,-6.8265,-6.8264,-6.8262,0,-6.8616,-6.855,-6.8629,-6.8577,-6.8566,-6.8634,-6.8589,-6.8633,-6.8588,-6.8643,-6.8651,-6.858,-6.8613,-6.8543,-6.8567,-6.8529,-6.8642,-6.8605,-6.8648,-6.8635,-6.8738,-6.8728,-6.9087,-6.9128,-6.8785,-6.8788,-6.8791,0,-6.8777,-6.8837,-6.8792,-6.8813,-6.88,-6.8835,-6.8847,-6.8762,-6.8779,-6.8764,-6.881,-6.8835,-6.885,-6.891,-6.886,-6.8879,-6.8839,-6.8964,-6.884,-6.8863,-6.8837,-6.8833,-6.8838,-6.8987,-6.8991,-6.8995,-6.8998,0,-6.9068,-6.9033,-6.9054,-6.9066,-6.9084,-6.9088,-6.9086,-6.9109,-6.9019,-6.9044,-6.9077,-6.9089,-6.9114,-6.914,-6.9148,-6.913,-6.9049,-6.9038,-6.9061,-6.9083,-6.9105,-6.9092,-6.8713,-6.9029,-6.9025,-6.9023,-6.9021,-6.902,-6.9289,-6.9337,-6.9313,-6.9341,-6.9331,-6.9332,-6.9371,-6.9333,-6.9358,-6.9371,-6.9321,-6.9366,-6.9348,-6.9349,-6.9341,-6.9375,-6.9319,-6.9354,-6.9362,-6.9371,-6.9386,-6.9104,-6.9377,-6.9376,-6.9375,-6.9374,-6.9373,0,-6.9572,-6.9552,-6.9579,-6.9579,-6.9602,-6.9527,-6.9522,-6.9546,-6.9586,-6.9576,-6.9594,-6.9633,-6.9659,-6.9615,-6.9633,-6.967,-6.9633,-6.9677,-6.9671,-6.9668,-6.9436,-6.9413,-6.9706,-6.9706,-6.9706,-6.9706,-6.9706,-6.9706,-6.9721,-6.9798,-6.9762,-6.9834,-6.9813,-6.9856,-6.9859,-6.9861,-6.9852,-6.99,-6.9921,-6.9893,-6.9869,-6.9886,-6.9908,-6.9894,-6.9904,-6.9961,-6.9934,-6.9717,-6.9685,-6.9653,-6.963,-6.9965,-6.9965,-7.0162,-7.0164,-7.0166]},{"header":{"parameterUnit":"m.s-1","parameterCategory":1,"la1":30.2991,"la2":30.254,"lo1":-89.0895,"lo2":-89.0444,"dy":0.0017,"dx":0.0017,"nx":28,"ny":28,"refTime":"2024-12-14T03:00:00:Z","depth":0,"parameterNumber":3,"parameterNumberName":"V-component_of_WINDS"},"data":[0,0,0,0,0,0,0,0,0,0,0,0,0,0,0,0,0,0,0,0,0,0,0,0,0,0,0,0,0,0,0,0,0,0,0,0,0,0,0,0,0,0,0,0,0,0,0,0,0,0,0,0,0,0,0,0,0,0,1.4622,1.4622,0,1.4635,1.4635,1.4635,1.4643,1.4644,1.4644,1.4644,1.4651,1.4651,1.4651,0,0,0,0,0,0,0,0,0,0,0,0,0,1.4603,1.4604,1.4622,1.4622,1.4623,1.4635,1.4635,1.4635,1.4643,1.4644,1.4644,1.4644,1.4651,1.4651,1.4651,0,0,0,0,0,0,0,0,0,0,0,0,0,1.4613,1.4604,1.4622,1.4628,1.4629,1.4635,1.4635,1.4635,1.4643,1.4644,1.4644,1.4644,1.4651,1.4651,1.4651,1.465,0,0,1.4652,1.4652,0,0,0,0,0,0,0,0,1.4612,1.4614,1.4627,1.4628,1.4629,1.4638,1.4631,1.464,1.4643,1.4638,1.4644,1.4644,1.4646,1.4647,1.4649,1.465,1.4651,1.4652,1.4652,1.4652,1.4652,0,0,0,0,0,0,0,1.4612,1.4613,1.4627,1.4627,1.4628,1.463,1.4631,1.4633,1.4641,1.4638,1.4639,1.4641,1.4647,1.4648,1.4649,1.4651,1.4652,1.4652,1.4652,1.4652,1.4655,1.4655,0,0,0,0,0,0,1.4611,1.4613,1.4627,1.4627,1.4621,1.463,1.4632,1.4635,1.4641,1.4642,1.464,1.4641,1.4648,1.4649,1.4649,1.465,1.4652,1.4652,1.4652,1.4656,1.4655,1.4655,0,0,0,0,0,0,1.461,1.4612,1.4626,1.462,1.4622,1.463,1.4633,1.4635,1.4637,1.4643,1.4644,1.4641,1.4648,1.4649,1.4651,1.465,1.4652,1.4653,1.4656,1.4655,1.4655,1.465,0,0,0,0,0,0,1.461,1.4612,1.4611,1.462,1.4623,1.4628,1.4633,1.4635,1.4638,1.4638,1.4644,1.4645,1.4648,1.4651,1.4651,1.465,1.4653,1.4656,1.4656,1.4655,1.465,1.465,1.465,0,0,0,0,0,1.4609,1.4608,1.4611,1.4613,1.4623,1.4628,1.4629,1.4635,1.4638,1.4637,1.4642,1.4644,1.4651,1.4651,1.4651,1.4651,1.4656,1.4656,1.4655,1.465,1.465,1.465,0,0,0,0,0,0,1.4595,1.4609,1.4613,1.4615,1.4621,1.463,1.4629,1.4634,1.4638,1.4638,1.4644,1.4645,1.4647,1.4649,1.4649,1.4652,1.4654,1.4654,1.465,1.4649,1.4649,1.4647,1.4653,0,0,0,0,0,1.4593,1.4598,1.4609,1.4609,1.4612,1.462,1.4623,1.4628,1.4633,1.4635,1.4639,1.4643,1.4647,1.4648,1.4651,1.4652,1.4653,1.4652,1.4651,1.4651,1.465,1.4653,1.4653,1.4655,1.4655,1.4655,0,0,1.4587,1.4595,1.4597,1.4607,1.4612,1.4616,1.4622,1.4625,1.4628,1.4635,1.4638,1.4642,1.4646,1.4649,1.4649,1.465,1.4651,1.4651,1.4651,1.465,1.4653,1.4653,1.4652,1.4655,1.4655,1.4655,0,0,1.4579,1.4585,1.4588,1.4594,1.4603,1.4609,1.461,1.4619,1.4623,1.4627,1.4632,1.4636,1.464,1.4645,1.4647,1.4646,1.4649,1.4647,1.4644,1.4646,1.4646,1.4646,1.4646,1.4646,1.4646,1.4646,1.4646,0,1.457,1.4577,1.4587,1.4592,1.4596,1.4606,1.4608,1.4613,1.4622,1.4624,1.4626,1.4635,1.4639,1.4643,1.4643,1.4645,1.4646,1.4645,1.4645,1.4645,1.4645,1.4645,1.4645,1.4646,1.4646,1.4646,1.4646,0,1.4567,1.4572,1.4573,1.4584,1.4589,1.4592,1.4602,1.4606,1.4612,1.4618,1.4623,1.4628,1.4634,1.4636,1.4639,1.4641,1.4642,1.4645,1.4646,1.4645,1.4645,1.4645,1.4646,1.4646,1.4646,1.4646,0,0,1.4546,1.4567,1.4567,1.4574,1.4586,1.459,1.4595,1.4603,1.4606,1.4613,1.4617,1.4623,1.4627,1.463,1.4635,1.4638,1.4638,1.464,1.464,1.464,1.4641,1.4639,1.4638,1.4641,1.4641,1.4641,1.4641,0,1.454,1.455,1.4561,1.4567,1.4573,1.4584,1.4588,1.4597,1.4603,1.4609,1.4616,1.4621,1.4625,1.4628,1.4631,1.4637,1.4638,1.4637,1.4643,1.4644,1.4641,1.4638,1.4635,1.4635,1.4641,1.4641,1.4641,0,1.4532,1.4542,1.4549,1.4565,1.4568,1.4571,1.4581,1.4587,1.4597,1.4602,1.4608,1.4615,1.462,1.4624,1.4631,1.4631,1.4635,1.4639,1.4639,1.4638,1.4641,1.4638,1.4635,1.4634,1.4641,1.4641,1.4641,0,1.4518,1.4532,1.4539,1.4545,1.4562,1.4565,1.4572,1.4583,1.4589,1.4597,1.4601,1.4609,1.4613,1.462,1.4629,1.463,1.4636,1.4639,1.464,1.464,1.4639,1.4639,1.4636,1.4643,1.4643,1.4643,1.4643,0,1.4508,1.4512,1.4533,1.4537,1.4543,1.4557,1.4561,1.457,1.458,1.4586,1.4596,1.4601,1.4613,1.4619,1.4626,1.4633,1.4634,1.4638,1.464,1.4637,1.4636,1.4638,1.4638,1.4643,1.4643,1.4643,1.4643,0,1.4491,1.4506,1.4514,1.4533,1.4537,1.4541,1.4556,1.456,1.457,1.4577,1.458,1.4594,1.4602,1.4613,1.4624,1.4629,1.4634,1.4637,1.4631,1.4632,1.4632,1.4632,1.463,1.4631,1.4637,1.4637,1.4637,0,1.4484,1.4488,1.4508,1.4514,1.4522,1.4531,1.4538,1.4552,1.4559,1.4573,1.4576,1.4587,1.4595,1.4609,1.4619,1.4628,1.4631,1.463,1.4632,1.463,1.4631,1.4631,1.4632,1.4628,1.4628,1.4628,1.4628,0,1.447,1.4478,1.4488,1.4502,1.4511,1.4522,1.4533,1.4537,1.4553,1.456,1.4571,1.4578,1.4592,1.4602,1.4614,1.462,1.4627,1.4628,1.4629,1.4625,1.4622,1.4624,1.4629,1.4627,1.4627,1.4627,1.4627,1.4627,1.4457,1.4463,1.4479,1.4491,1.4502,1.4513,1.4519,1.4531,1.4541,1.4555,1.4563,1.4574,1.4587,1.4603,1.461,1.4619,1.4621,1.4621,1.4621,1.4621,1.4621,1.4622,1.4621,1.4621,1.4621,1.4621,1.4621,0,1.4444,1.4456,1.4467,1.4485,1.4495,1.4504,1.4518,1.4525,1.4535,1.4548,1.4558,1.4571,1.4582,1.4595,1.4607,1.4611,1.4615,1.4614,1.4613,1.4615,1.4618,1.4616,1.4611,1.4611,1.4611,1.4611,1.4611,1.4611,1.4438,1.4448,1.4459,1.4475,1.4487,1.4499,1.4507,1.4517,1.4528,1.4544,1.4554,1.4564,1.4577,1.4591,1.4601,1.4605,1.4608,1.4607,1.4611,1.4613,1.4614,1.4615,1.4613,1.4607,1.4607,1.4607,1.4607,1.4607]}]]